N5VIS Weather Reports


time (UTC)temp
F
wind
direction
speed
knots
gust
knots
rain 1hr
in
rain 24hr
in
rain mn
in
humidity
%
barometer
mb
20260902180028 91 79 0.0 1.7 0.00 0.00 0.00 71 1017.4
20260902175528 90 97 0.0 0.9 0.00 0.00 0.00 72 1017.5
20260902175024 90 93 0.9 0.9 0.00 0.00 0.00 73 1017.7
20260902174520 90 101 0.9 1.7 0.00 0.00 0.00 70 1017.7
20260902174016 90 79 0.0 0.0 0.00 0.00 0.00 72 1017.7
20260902173515 90 122 0.0 2.6 0.00 0.00 0.00 73 1017.7
20260902173010 89 110 0.0 0.0 0.00 0.00 0.00 73 1017.7
20260902172509 90 106 0.0 0.9 0.00 0.00 0.00 72 1017.9
20260902172005 90 90 0.9 1.7 0.00 0.00 0.00 72 1018.0
20260902171500 91 155 0.0 1.7 0.00 0.00 0.00 73 1018.1
20260902170956 90 114 0.9 0.9 0.00 0.00 0.00 72 1018.1
20260902170456 90 114 0.0 0.0 0.00 0.00 0.00 74 1018.2
20260902165952 90 114 0.0 1.7 0.00 0.00 0.00 71 1018.3
20260902165451 90 129 0.9 2.6 0.00 0.00 0.00 71 1018.2
20260902164946 90 91 0.0 1.7 0.00 0.00 0.00 72 1018.4
20260902164441 90 316 1.7 2.6 0.00 0.00 0.00 72 1018.3
20260902163940 90 84 0.9 0.9 0.00 0.00 0.00 73 1018.0
20260902163435 89 89 1.7 3.5 0.00 0.00 0.00 74 1018.4
20260902162933 88 123 1.7 2.6 0.00 0.00 0.00 75 1018.6
20260902162429 89 131 2.6 2.6 0.00 0.00 0.00 74 1018.4
20260902161928 89 126 0.9 2.6 0.00 0.00 0.00 73 1018.3
20260902161424 90 213 0.0 3.5 0.00 0.00 0.00 72 1018.4
20260902160920 90 197 1.7 1.7 0.00 0.00 0.00 72 1018.3
20260902160415 91 122 3.5 3.5 0.00 0.00 0.00 71 1018.3
20260902155913 91 185 0.9 1.7 0.00 0.00 0.00 69 1018.6
20260902155409 90 242 0.9 3.5 0.00 0.00 0.00 72 1018.4
20260902154902 90 197 1.7 2.6 0.00 0.00 0.00 73 1018.7
20260902154358 90 180 0.9 5.2 0.00 0.00 0.00 73 1018.5
20260902153857 91 197 3.5 5.2 0.00 0.00 0.00 72 1018.5
20260902153356 90 186 0.9 3.5 0.00 0.00 0.00 73 1018.6
20260902152852 90 145 1.7 5.2 0.00 0.00 0.00 73 1018.5
20260902152348 91 195 1.7 3.5 0.00 0.00 0.00 73 1018.7
20260902151843 89 140 0.0 2.6 0.00 0.00 0.00 75 1018.8
20260902151338 89 205 1.7 2.6 0.00 0.00 0.00 75 1018.9
20260902150833 90 180 0.9 3.5 0.00 0.00 0.00 74 1018.4
20260902150329 89 127 0.9 1.7 0.00 0.00 0.00 75 1018.7
20260902145828 88 190 1.7 2.6 0.00 0.00 0.00 77 1018.6
20260902145324 89 148 1.7 2.6 0.00 0.00 0.00 77 1018.5
20260902144819 88 237 0.9 0.9 0.00 0.00 0.00 78 1018.6
20260902144315 87 154 0.9 2.6 0.00 0.00 0.00 78 1018.6
20260902143810 87 219 3.5 5.2 0.00 0.00 0.00 79 1018.4
20260902143305 87 132 1.7 2.6 0.00 0.00 0.00 80 1018.5
20260902142801 87 177 0.9 3.5 0.00 0.00 0.00 79 1018.6
20260902142256 87 228 0.9 3.5 0.00 0.00 0.00 81 1018.4
20260902141756 87 160 3.5 5.2 0.00 0.00 0.00 81 1018.4
20260902141252 86 221 0.9 3.5 0.00 0.00 0.00 81 1018.4
20260902140752 86 171 1.7 2.6 0.00 0.00 0.00 81 1018.3
20260902140247 86 229 1.7 3.5 0.00 0.00 0.00 82 1018.3
20260902135746 86 198 1.7 2.6 0.00 0.00 0.00 82 1018.0
20260902135242 85 191 0.9 3.5 0.00 0.00 0.00 83 1018.3
20260902134742 85 174 1.7 1.7 0.00 0.00 0.00 84 1018.4
20260902134237 85 163 1.7 5.2 0.00 0.00 0.00 85 1018.4
20260902133733 86 224 0.0 3.5 0.00 0.00 0.00 85 1018.6
20260902133232 85 101 1.7 2.6 0.00 0.00 0.00 84 1018.4
20260902132727 84 246 0.0 1.7 0.00 0.00 0.00 85 1018.6
20260902132223 85 145 0.0 1.7 0.00 0.00 0.00 84 1018.5
20260902131718 84 211 0.0 2.6 0.00 0.00 0.00 86 1018.6
20260902131214 84 142 1.7 2.6 0.00 0.00 0.00 86 1018.6
20260902130708 84 276 3.5 5.2 0.00 0.00 0.00 86 1018.6
20260902130204 84 251 0.0 1.7 0.00 0.00 0.00 86 1018.7
20260902125659 84 274 0.0 1.7 0.00 0.00 0.00 87 1018.6
20260902125155 84 275 0.0 2.6 0.00 0.00 0.00 86 1018.4
20260902124651 83 255 0.9 1.7 0.00 0.00 0.00 87 1018.2
20260902124151 82 235 1.7 2.6 0.00 0.00 0.00 88 1018.5
20260902123647 82 176 0.9 1.7 0.00 0.00 0.00 89 1018.4
20260902123143 82 230 0.9 1.7 0.00 0.00 0.00 88 1018.3
20260902122643 82 282 0.0 1.7 0.00 0.00 0.00 89 1018.4
20260902122139 81 252 0.0 3.5 0.00 0.00 0.00 90 1018.4
20260902121638 81 267 0.9 1.7 0.00 0.00 0.00 91 1018.4
20260902121133 81 292 0.9 0.9 0.00 0.00 0.00 90 1018.4
20260902120629 81 281 0.0 0.0 0.00 0.00 0.00 91 1018.4
20260902120126 80 281 0.0 0.0 0.00 0.00 0.00 92 1018.0
20260902115620 79 281 0.0 0.0 0.00 0.00 0.00 93 1018.2
20260902115116 78 268 1.7 2.6 0.00 0.00 0.00 95 1018.1
20260902114612 77 170 0.9 1.7 0.00 0.00 0.00 97 1017.9
20260902114112 77 186 0.0 0.9 0.00 0.00 0.00 98 1018.3
20260902113608 77 207 0.0 0.0 0.00 0.00 0.00 98 1018.1
20260902113102 77 207 0.0 0.9 0.00 0.00 0.00 98 1018.0
20260902112557 77 197 0.0 0.0 0.00 0.00 0.00 98 1017.9
20260902112054 77 197 0.0 0.0 0.00 0.00 0.00 98 1017.8
20260902111550 77 197 0.0 0.0 0.00 0.00 0.00 98 1017.9
20260902111045 77 197 0.0 0.0 0.00 0.00 0.00 97 1017.8
20260902110542 77 197 0.0 0.9 0.00 0.00 0.00 97 1017.6
20260902110037 76 198 0.0 0.0 0.00 0.00 0.00 98 1017.6
20260902105532 76 198 0.0 0.0 0.00 0.00 0.00 98 1017.6
20260902105031 77 198 0.0 0.0 0.00 0.00 0.00 97 1017.7
20260902104527 77 198 0.0 0.0 0.00 0.00 0.00 97 1017.3
20260902104027 77 198 0.0 0.0 0.00 0.00 0.00 97 1017.7
20260902103523 76 195 0.0 0.9 0.00 0.00 0.00 99 1017.4
20260902103018 76 195 0.0 0.9 0.00 0.00 0.00 99 1017.5
20260902102514 76 195 0.0 0.0 0.00 0.00 0.00 99 1017.5
20260902102011 76 195 0.0 0.0 0.00 0.00 0.00 99 1017.4
20260902101506 77 195 0.0 0.0 0.00 0.00 0.00 99 1017.4
20260902101004 77 195 0.0 0.0 0.00 0.00 0.00 99 1017.4
20260902100500 77 195 0.0 0.0 0.00 0.00 0.00 99 1017.4
20260902095959 77 195 0.0 0.0 0.00 0.00 0.00 98 1017.4
20260902095454 77 195 0.0 0.0 0.00 0.00 0.00 99 1017.3
20260902094953 77 195 0.0 0.0 0.00 0.00 0.00 99 1017.3
20260902094449 77 195 0.0 0.0 0.00 0.00 0.00 99 1017.2
20260902093944 77 195 0.0 0.0 0.00 0.00 0.00 98 1017.4
20260902093439 77 195 0.0 0.0 0.00 0.00 0.00 98 1017.3
20260902092938 78 195 0.0 0.0 0.00 0.00 0.00 98 1016.9
20260902092433 78 195 0.0 0.0 0.00 0.00 0.00 98 1017.2
20260902091933 78 195 0.0 0.0 0.00 0.00 0.00 97 1016.9
20260902091429 78 195 0.0 0.0 0.00 0.00 0.00 97 1017.2
20260902090925 78 195 0.0 0.0 0.00 0.00 0.00 97 1017.0
20260902090425 78 195 0.0 0.0 0.00 0.00 0.00 98 1016.9
20260902085924 77 195 0.0 0.0 0.00 0.00 0.00 98 1017.0
20260902085420 77 195 0.0 0.0 0.00 0.00 0.00 98 1017.0
20260902084915 77 195 0.0 0.0 0.00 0.00 0.00 98 1016.9
20260902084412 77 195 0.0 0.0 0.00 0.00 0.00 97 1017.0
20260902083907 77 195 0.0 0.0 0.00 0.00 0.00 97 1016.8
20260902083406 77 195 0.0 0.0 0.00 0.00 0.00 97 1016.8
20260902082901 77 195 0.0 0.0 0.00 0.00 0.00 97 1016.7
20260902082357 77 195 0.0 0.0 0.00 0.00 0.00 97 1016.6
20260902081854 77 195 0.0 0.0 0.00 0.00 0.00 97 1016.7
20260902081349 78 195 0.0 0.0 0.00 0.00 0.00 97 1016.7
20260902080844 78 195 0.0 0.0 0.00 0.00 0.00 96 1016.7
20260902080341 78 195 0.0 0.0 0.00 0.00 0.00 96 1016.4
20260902075840 78 195 0.0 0.0 0.00 0.00 0.00 96 1016.7
20260902075337 79 195 0.0 0.0 0.00 0.00 0.00 95 1016.8
20260902074831 79 195 0.0 0.0 0.00 0.00 0.00 95 1016.6
20260902074327 79 195 0.0 0.0 0.00 0.00 0.00 94 1016.5
20260902073827 80 195 0.0 0.0 0.00 0.00 0.00 93 1016.5
20260902054125 79 104 0.0 0.0 0.00 0.00 0.00 97 1017.0
20260902053620 79 104 0.0 0.0 0.00 0.00 0.00 97 1017.0
20260902053115 79 104 0.0 0.0 0.00 0.00 0.00 96 1016.9
20260902052614 79 104 0.0 0.0 0.00 0.00 0.00 96 1017.0
20260902052110 79 104 0.0 0.0 0.00 0.00 0.00 96 1017.1
20260902051609 80 104 0.0 0.0 0.00 0.00 0.00 96 1017.1
20260902051109 80 104 0.0 0.0 0.00 0.00 0.00 96 1017.0
20260902050603 80 104 0.0 0.0 0.00 0.00 0.00 95 1017.0
20260902050059 80 104 0.0 0.0 0.00 0.00 0.00 95 1017.2
20260902045554 80 104 0.0 0.0 0.00 0.00 0.00 95 1017.2
20260902045050 80 104 0.0 0.0 0.00 0.00 0.00 95 1017.1
20260902044550 80 104 0.0 0.0 0.00 0.00 0.00 95 1017.3
20260902044046 80 104 0.0 0.0 0.00 0.00 0.00 95 1017.3
20260902043541 80 104 0.0 0.0 0.00 0.00 0.00 95 1017.3
20260902043036 80 104 0.0 0.0 0.00 0.00 0.00 95 1017.4
20260902042536 80 104 0.0 0.0 0.00 0.00 0.00 95 1017.3
20260902042032 80 104 0.0 0.0 0.00 0.00 0.00 95 1017.4
20260902041531 80 104 0.0 0.0 0.00 0.00 0.00 94 1017.6
20260902041026 80 104 0.0 0.0 0.00 0.00 0.00 95 1017.4
20260902040526 80 104 0.0 0.0 0.00 0.00 0.00 94 1017.6
20260902040021 80 104 0.0 0.0 0.00 0.00 0.00 94 1017.4
20260902035519 80 104 0.0 0.0 0.00 0.00 0.00 94 1017.3
20260902035015 80 104 0.0 0.0 0.00 0.00 0.00 94 1017.5
20260902034514 81 104 0.0 0.0 0.00 0.00 0.00 94 1017.6
20260902034014 81 104 0.0 0.0 0.00 0.00 0.00 94 1017.8
20260902033514 0 0.0 0.0 0.00 0.00 0.00 1017.6
20260902033013 0 0.0 0.0 0.00 0.00 0.00 1017.6
20260902032507 81 104 0.0 0.0 0.00 0.00 0.00 93 1017.7
20260902032003 81 104 0.0 0.0 0.00 0.00 0.00 93 1017.8
20260902031457 81 104 0.0 0.0 0.00 0.00 0.00 93 1017.7
20260902030954 81 104 0.0 0.0 0.00 0.00 0.00 93 1017.9
20260902030453 0 0.0 0.0 0.00 0.00 0.00 1017.6
20260902025952 81 104 0.0 0.0 0.00 0.00 0.00 92 1017.7
20260902025448 81 104 0.0 0.0 0.00 0.00 0.00 92 1017.5
20260902024949 82 104 0.0 0.0 0.00 0.00 0.00 91 1017.5
20260902024444 82 104 0.0 0.0 0.00 0.00 0.00 91 1017.4
20260902023944 0 0.0 0.0 0.00 0.00 0.00 1017.3
20260902023440 82 104 0.0 0.0 0.00 0.00 0.00 91 1017.4
20260902022939 82 104 0.0 0.0 0.00 0.00 0.00 91 1017.5
20260902022434 82 104 0.0 0.0 0.00 0.00 0.00 91 1017.4
20260902021931 82 104 0.0 0.0 0.00 0.00 0.00 91 1017.4
20260902021431 82 104 0.0 0.0 0.00 0.00 0.00 91 1017.3
20260902020926 82 104 0.0 0.0 0.00 0.00 0.00 91 1017.2
20260902020422 82 104 0.0 0.0 0.00 0.00 0.00 91 1017.3
20260902015917 82 104 0.0 0.0 0.00 0.00 0.00 90 1017.1
20260902015413 82 104 0.0 0.0 0.00 0.00 0.00 90 1017.2
20260902014908 83 104 0.0 0.0 0.00 0.00 0.00 88 1017.0
20260902014405 83 104 0.0 0.0 0.00 0.00 0.00 88 1016.9
20260902013904 83 104 0.0 0.0 0.00 0.00 0.00 88 1016.8
20260902013359 83 104 0.0 0.0 0.00 0.00 0.00 87 1016.9
20260902012855 83 104 0.0 0.0 0.00 0.00 0.00 87 1016.9
20260902012351 83 104 0.0 0.0 0.00 0.00 0.00 86 1017.0
20260902011846 83 104 0.0 0.0 0.00 0.00 0.00 87 1016.7
20260902011340 83 104 0.0 0.9 0.00 0.00 0.00 86 1016.7
20260902010840 84 95 0.0 0.0 0.00 0.00 0.00 86 1016.7
20260902010335 83 113 0.0 0.0 0.00 0.00 0.00 86 1016.8
20260902005834 83 108 0.0 0.0 0.00 0.00 0.00 86 1016.6
20260902005329 83 112 0.0 0.0 0.00 0.00 0.00 87 1016.5
20260902004824 84 112 0.0 0.0 0.00 0.00 0.00 86 1016.4
20260902004319 0 0.0 0.0 0.00 0.00 0.00 1016.3
20260902003814 0 0.0 0.0 0.00 0.00 0.00 1016.3
20260902003309 0 0.0 0.0 0.00 0.00 0.00 1016.6
20260902002805 84 112 0.0 0.0 0.00 0.00 0.00 85 1016.3
20260902002306 84 112 0.0 0.0 0.00 0.00 0.00 85 1016.4
20260902001800 84 112 0.0 0.0 0.00 0.00 0.00 84 1016.4
20260902001255 84 110 0.0 0.0 0.00 0.00 0.00 85 1016.4
20260902000755 85 108 0.0 0.0 0.00 0.00 0.00 83 1016.0
20260902000250 85 108 0.0 0.0 0.00 0.00 0.00 83 1016.1
20260901235750 85 108 1.7 1.7 0.00 0.00 0.00 82 1016.2
20260901235245 85 92 0.0 0.0 0.00 0.00 0.00 82 1016.3
20260901234744 86 133 0.0 0.0 0.00 0.00 0.00 82 1016.0
20260901234239 86 133 0.0 0.9 0.00 0.00 0.00 82 1016.2
20260901233733 86 120 0.0 0.0 0.00 0.00 0.00 80 1016.1
20260901233230 87 126 0.9 0.9 0.00 0.00 0.00 79 1016.2
20260901232730 88 130 0.0 0.0 0.00 0.00 0.00 77 1016.3
20260901232226 88 120 0.9 1.7 0.00 0.00 0.00 76 1016.5
20260901231722 89 130 0.0 0.0 0.00 0.00 0.00 75 1016.5
20260901231218 89 130 0.0 0.0 0.00 0.00 0.00 75 1016.4
20260901230713 89 115 0.9 1.7 0.00 0.00 0.00 75 1016.5
20260901230213 90 63 0.9 0.9 0.00 0.00 0.00 75 1016.3
20260901225708 90 63 0.9 1.7 0.00 0.00 0.00 75 1016.4
20260901225202 90 306 0.9 1.7 0.00 0.00 0.00 75 1016.1
20260901224659 90 81 1.7 1.7 0.00 0.00 0.00 75 1016.4
20260901224155 91 26 0.0 0.9 0.00 0.00 0.00 75 1016.2
20260901223650 91 169 0.0 0.0 0.00 0.00 0.00 74 1016.3
20260901223145 89 32 0.0 0.0 0.00 0.00 0.00 75 1016.2
20260901222641 89 32 0.0 0.0 0.00 0.00 0.00 75 1016.2
20260901222137 89 7 0.9 0.9 0.00 0.00 0.00 75 1016.2
20260901221633 91 103 0.9 0.9 0.00 0.00 0.00 73 1016.2
20260901221129 91 124 1.7 1.7 0.00 0.00 0.00 71 1016.3
20260901220627 91 41 0.9 0.9 0.00 0.00 0.00 72 1016.2
20260901220127 92 155 0.0 0.9 0.00 0.00 0.00 72 1016.3
20260901215625 92 34 0.0 1.7 0.00 0.00 0.00 71 1016.1
20260901215120 91 68 1.7 2.6 0.00 0.00 0.00 70 1016.1
20260901214618 92 241 0.9 2.6 0.00 0.00 0.00 69 1016.0
20260901214113 92 249 0.0 0.9 0.00 0.00 0.00 70 1016.3
20260901213612 92 109 0.0 0.9 0.00 0.00 0.00 69 1016.3
20260901213107 93 242 1.7 2.6 0.00 0.00 0.00 67 1016.3
20260901212607 94 172 0.0 0.9 0.00 0.00 0.00 69 1016.4
20260901212104 93 127 0.9 1.7 0.00 0.00 0.00 66 1016.4
20260901211558 93 55 0.9 1.7 0.00 0.00 0.00 67 1016.5
20260901211055 93 73 0.0 0.9 0.00 0.00 0.00 68 1016.1
20260901210550 93 26 0.9 1.7 0.00 0.00 0.00 68 1016.3
20260901210046 93 255 0.0 0.0 0.00 0.00 0.00 70 1016.3
20260901205542 94 283 0.0 0.0 0.00 0.00 0.00 67 1016.5
20260901205041 94 253 0.0 1.7 0.00 0.00 0.00 67 1016.4
20260901204538 94 288 0.9 0.9 0.00 0.00 0.00 68 1016.2
20260901204032 94 325 0.9 0.9 0.00 0.00 0.00 67 1016.4
20260901203527 0 0.0 0.0 0.00 0.00 0.00 1016.3
20260901203022 93 144 0.0 0.0 0.00 0.00 0.00 65 1016.3
20260901202516 93 144 0.0 0.0 0.00 0.00 0.00 65 1016.2
20260901202013 93 144 0.0 0.0 0.00 0.00 0.00 65 1016.3
20260901201508 0 0.0 0.0 0.00 0.00 0.00 1016.2
20260901201002 93 108 0.9 1.7 0.00 0.00 0.00 63 1016.4
20260901200456 93 108 0.9 1.7 0.00 0.00 0.00 63 1016.5
20260901195955 93 108 0.9 0.9 0.00 0.00 0.00 64 1016.5
20260901195454 92 108 0.0 0.9 0.00 0.00 0.00 65 1016.6
20260901194949 91 108 0.0 0.9 0.00 0.00 0.00 67 1016.7
20260901194444 92 359 0.9 0.9 0.00 0.00 0.00 65 1016.8
20260901193940 91 308 0.0 0.0 0.00 0.00 0.00 68 1017.0
20260901193439 87 283 0.9 0.9 0.00 0.00 0.00 78 1016.9
20260901192939 87 283 0.9 0.9 0.00 0.00 0.00 78 1017.1
20260901192435 87 283 0.9 0.9 0.00 0.00 0.00 77 1017.0
20260901191931 87 296 0.9 0.9 0.00 0.00 0.00 82 1017.0
20260901191426 87 280 2.6 3.5 0.00 0.00 0.00 81 1017.3
20260901190922 89 282 0.9 2.6 0.00 0.00 0.00 80 1017.2
20260901190422 89 279 1.7 1.7 0.00 0.00 0.00 78 1017.2
20260901185920 88 268 0.9 0.9 0.00 0.00 0.00 80 1017.3
20260901185420 88 268 0.9 0.9 0.00 0.00 0.00 80 1017.4
20260901184920 88 268 0.9 1.7 0.00 0.00 0.00 80 1017.5
20260901184415 87 270 0.0 0.0 0.00 0.00 0.00 83 1017.5
20260901183910 87 275 1.7 1.7 0.00 0.00 0.00 82 1017.6
20260901183410 88 280 2.6 3.5 0.00 0.00 0.00 81 1017.7
20260901182906 90 247 0.9 1.7 0.00 0.00 0.00 82 1017.8
20260901182401 91 194 0.9 0.9 0.00 0.00 0.00 73 1017.8
20260901181856 91 266 0.0 1.7 0.00 0.00 0.00 73 1017.9
20260901181356 90 234 1.7 1.7 0.00 0.00 0.00 73 1017.8
20260901180855 90 81 0.0 0.9 0.00 0.00 0.00 73 1017.8
20260901180354 90 79 0.0 0.9 0.00 0.00 0.00 75 1017.8